[[{"header":{"parameterUnit":"m.s-1","parameterCategory":1,"la1":30.2991,"la2":30.254,"lo1":-89.0895,"lo2":-89.0444,"dy":0.0017,"dx":0.0017,"nx":28,"ny":28,"refTime":"2023-08-30T03:00:00:Z","depth":0,"parameterNumber":2,"parameterNumberName":"U-component_of_WINDS"},"data":[0,0,0,0,0,0,0,0,0,0,0,0,0,0,0,0,0,0,0,0,0,0,0,0,0,0,0,0,0,0,0,0,0,0,0,0,0,0,0,0,0,0,0,0,0,0,0,0,0,0,0,0,0,0,0,0,0,0,-1.1375,-1.1376,0,-1.1442,-1.1442,-1.1443,-1.1375,-1.1372,-1.137,-1.1367,-1.1439,-1.1444,-1.1448,0,0,0,0,0,0,0,0,0,0,0,0,0,-1.1192,-1.1196,-1.1375,-1.1376,-1.1377,-1.1441,-1.1442,-1.1443,-1.1376,-1.1372,-1.1369,-1.1366,-1.1438,-1.1443,-1.1448,0,0,0,0,0,0,0,0,0,0,0,0,0,-1.1267,-1.1197,-1.1375,-1.1351,-1.1349,-1.1441,-1.1442,-1.1444,-1.1376,-1.1372,-1.1368,-1.1365,-1.1436,-1.1443,-1.1449,-1.157,0,0,-1.1469,-1.1472,0,0,0,0,0,0,0,0,-1.1263,-1.1274,-1.1353,-1.1353,-1.1351,-1.1396,-1.1404,-1.1486,-1.1377,-1.1366,-1.1367,-1.1363,-1.1428,-1.1435,-1.1457,-1.1573,-1.1576,-1.147,-1.1474,-1.1477,-1.1478,0,0,0,0,0,0,0,-1.1258,-1.127,-1.1401,-1.1355,-1.1353,-1.1337,-1.1344,-1.1419,-1.1419,-1.1367,-1.1362,-1.1371,-1.1427,-1.145,-1.1458,-1.1577,-1.147,-1.1475,-1.148,-1.1482,-1.1795,-1.1799,0,0,0,0,0,0,-1.1255,-1.1266,-1.1399,-1.1403,-1.1296,-1.1344,-1.1351,-1.1386,-1.1418,-1.1419,-1.1374,-1.1367,-1.1441,-1.145,-1.146,-1.1603,-1.1477,-1.1483,-1.1487,-1.1791,-1.1796,-1.1801,0,0,0,0,0,0,-1.1251,-1.1267,-1.1397,-1.1334,-1.1349,-1.1351,-1.1391,-1.1389,-1.1412,-1.1423,-1.1423,-1.1398,-1.1438,-1.1451,-1.1542,-1.1605,-1.1486,-1.1492,-1.1786,-1.1792,-1.1798,-1.1891,0,0,0,0,0,0,-1.1246,-1.1266,-1.1312,-1.1335,-1.1353,-1.1478,-1.1395,-1.1393,-1.1424,-1.1415,-1.1446,-1.1447,-1.1436,-1.1533,-1.1549,-1.1612,-1.1497,-1.178,-1.1789,-1.1796,-1.1883,-1.19,-1.1915,0,0,0,0,0,-1.124,-1.1336,-1.1314,-1.1331,-1.1409,-1.1481,-1.1491,-1.1476,-1.1429,-1.1475,-1.1481,-1.1446,-1.1595,-1.1543,-1.156,-1.1626,-1.1776,-1.1786,-1.1796,-1.1875,-1.1897,-1.1915,0,0,0,0,0,0,-1.1322,-1.1339,-1.1315,-1.1421,-1.145,-1.147,-1.1527,-1.1499,-1.1543,-1.1534,-1.1513,-1.1521,-1.1618,-1.1631,-1.1573,-1.1744,-1.1678,-1.1692,-1.1733,-1.1753,-1.1769,-1.1765,-1.1502,0,0,0,0,0,-1.1352,-1.1408,-1.142,-1.1513,-1.1529,-1.1526,-1.1556,-1.1542,-1.1571,-1.1584,-1.1597,-1.1628,-1.1682,-1.1718,-1.1768,-1.1883,-1.1889,-1.1937,-1.1953,-1.1967,-1.198,-1.2042,-1.2063,-1.1833,-1.1833,-1.1833,0,0,-1.1416,-1.1432,-1.1469,-1.153,-1.1551,-1.161,-1.1537,-1.1603,-1.1647,-1.1594,-1.1681,-1.1692,-1.1725,-1.1829,-1.1876,-1.1843,-1.2044,-1.1979,-1.199,-1.1995,-1.2054,-1.2076,-1.2095,-1.184,-1.1838,-1.1837,0,0,-1.1562,-1.158,-1.1659,-1.168,-1.1712,-1.1709,-1.1728,-1.1751,-1.1756,-1.1842,-1.1804,-1.1856,-1.1949,-1.1974,-1.1999,-1.2153,-1.2123,-1.217,-1.2256,-1.2317,-1.2335,-1.2351,-1.2407,-1.2427,-1.2182,-1.2183,-1.2183,0,-1.1638,-1.1725,-1.1704,-1.1772,-1.1801,-1.1753,-1.1834,-1.1856,-1.1903,-1.1924,-1.1886,-1.2001,-1.202,-1.2129,-1.2167,-1.2188,-1.221,-1.2168,-1.2334,-1.235,-1.2364,-1.2417,-1.2438,-1.2188,-1.2188,-1.2187,-1.2187,0,-1.1817,-1.1877,-1.1938,-1.1982,-1.2017,-1.2092,-1.2082,-1.212,-1.2102,-1.2103,-1.2192,-1.2213,-1.2266,-1.229,-1.2274,-1.2398,-1.2376,-1.2336,-1.227,-1.2392,-1.2442,-1.2462,-1.2197,-1.2194,-1.2193,-1.2191,0,0,-1.2019,-1.2049,-1.2072,-1.2091,-1.2121,-1.2169,-1.2241,-1.2291,-1.2324,-1.2358,-1.2418,-1.2497,-1.246,-1.2488,-1.2474,-1.2527,-1.2648,-1.248,-1.2481,-1.2512,-1.2786,-1.2817,-1.2841,-1.2627,-1.2631,-1.2634,-1.2784,0,-1.2167,-1.2291,-1.2273,-1.2393,-1.2449,-1.2404,-1.2467,-1.2492,-1.2495,-1.2544,-1.2547,-1.2603,-1.2549,-1.2566,-1.2616,-1.2623,-1.2703,-1.2611,-1.2684,-1.2687,-1.2679,-1.2867,-1.29,-1.3041,-1.2803,-1.2806,-1.2808,0,-1.2357,-1.2395,-1.2521,-1.2541,-1.2564,-1.2621,-1.2665,-1.2711,-1.274,-1.2738,-1.2768,-1.2744,-1.2817,-1.2747,-1.2847,-1.2785,-1.2814,-1.2821,-1.2826,-1.2834,-1.2757,-1.2881,-1.3085,-1.3107,-1.2838,-1.2836,-1.2834,0,-1.2494,-1.2576,-1.2662,-1.268,-1.2705,-1.2746,-1.2759,-1.2783,-1.2814,-1.2853,-1.2873,-1.2921,-1.2947,-1.2985,-1.2974,-1.2924,-1.3077,-1.3006,-1.3078,-1.3079,-1.3114,-1.3113,-1.3328,-1.313,-1.313,-1.313,-1.3129,0,-1.2662,-1.274,-1.2723,-1.2776,-1.2863,-1.2841,-1.2928,-1.2935,-1.2956,-1.301,-1.2974,-1.3026,-1.3007,-1.3058,-1.305,-1.3135,-1.3147,-1.3148,-1.3145,-1.3152,-1.3152,-1.3172,-1.3163,-1.3135,-1.3134,-1.3133,-1.3132,0,-1.283,-1.2821,-1.2912,-1.2928,-1.2933,-1.2997,-1.3011,-1.3061,-1.3059,-1.3128,-1.3143,-1.3142,-1.3199,-1.3191,-1.3256,-1.325,-1.3356,-1.3341,-1.3347,-1.3344,-1.3417,-1.341,-1.3653,-1.3684,-1.3466,-1.3468,-1.3469,0,-1.2939,-1.2998,-1.3019,-1.3052,-1.3067,-1.3121,-1.3152,-1.3132,-1.3166,-1.3202,-1.3248,-1.3301,-1.3344,-1.3438,-1.3444,-1.3493,-1.3479,-1.3561,-1.3487,-1.3492,-1.3482,-1.3479,-1.3485,-1.3576,-1.3579,-1.3581,-1.3582,0,-1.3133,-1.3125,-1.3171,-1.3215,-1.3252,-1.3286,-1.3317,-1.3346,-1.3329,-1.3369,-1.3427,-1.346,-1.3524,-1.3579,-1.3625,-1.3639,-1.3609,-1.3605,-1.3625,-1.3633,-1.3635,-1.3636,-1.3388,-1.36,-1.3599,-1.3597,-1.3596,-1.3596,-1.3276,-1.3326,-1.3349,-1.34,-1.3421,-1.345,-1.3497,-1.35,-1.3548,-1.3598,-1.3584,-1.3649,-1.3675,-1.3733,-1.3752,-1.3803,-1.3773,-1.3801,-1.3809,-1.3817,-1.3826,-1.3625,-1.3811,-1.3811,-1.381,-1.381,-1.3809,0,-1.3469,-1.3481,-1.3528,-1.3571,-1.3612,-1.3577,-1.3609,-1.3646,-1.3703,-1.3729,-1.377,-1.3836,-1.3888,-1.3897,-1.3947,-1.3986,-1.3974,-1.4,-1.3998,-1.4002,-1.3849,-1.3828,-1.4009,-1.4009,-1.4009,-1.4009,-1.4009,-1.4009,-1.3574,-1.3658,-1.3652,-1.3745,-1.3756,-1.3819,-1.384,-1.3867,-1.3887,-1.3962,-1.4005,-1.4009,-1.4028,-1.4078,-1.4124,-1.4126,-1.4146,-1.4178,-1.4175,-1.4032,-1.4012,-1.3993,-1.3973,-1.4183,-1.4183,-1.4323,-1.4324,-1.4325]},{"header":{"parameterUnit":"m.s-1","parameterCategory":1,"la1":30.2991,"la2":30.254,"lo1":-89.0895,"lo2":-89.0444,"dy":0.0017,"dx":0.0017,"nx":28,"ny":28,"refTime":"2023-08-30T03:00:00:Z","depth":0,"parameterNumber":3,"parameterNumberName":"V-component_of_WINDS"},"data":[0,0,0,0,0,0,0,0,0,0,0,0,0,0,0,0,0,0,0,0,0,0,0,0,0,0,0,0,0,0,0,0,0,0,0,0,0,0,0,0,0,0,0,0,0,0,0,0,0,0,0,0,0,0,0,0,0,0,-2.7803,-2.7804,0,-2.7865,-2.7866,-2.7866,-2.782,-2.7818,-2.7816,-2.7814,-2.7875,-2.7878,-2.7881,0,0,0,0,0,0,0,0,0,0,0,0,0,-2.7641,-2.7645,-2.7803,-2.7804,-2.7804,-2.7865,-2.7866,-2.7866,-2.7821,-2.7818,-2.7816,-2.7813,-2.7873,-2.7878,-2.7882,0,0,0,0,0,0,0,0,0,0,0,0,0,-2.7708,-2.7646,-2.7803,-2.7789,-2.7788,-2.7865,-2.7866,-2.7867,-2.7821,-2.7818,-2.7815,-2.7812,-2.7872,-2.7877,-2.7882,-2.7974,0,0,-2.7898,-2.79,0,0,0,0,0,0,0,0,-2.7704,-2.7714,-2.779,-2.779,-2.7789,-2.7832,-2.7831,-2.7903,-2.7822,-2.7809,-2.7814,-2.7811,-2.7863,-2.7868,-2.7886,-2.7977,-2.798,-2.7899,-2.7902,-2.7904,-2.7905,0,0,0,0,0,0,0,-2.77,-2.7711,-2.7827,-2.7791,-2.7791,-2.7778,-2.7785,-2.7844,-2.7852,-2.781,-2.7806,-2.7814,-2.7862,-2.7882,-2.7888,-2.7981,-2.7898,-2.7903,-2.7906,-2.7908,-2.8149,-2.8152,0,0,0,0,0,0,-2.7697,-2.7708,-2.7825,-2.7829,-2.7739,-2.7784,-2.7791,-2.7821,-2.7851,-2.7852,-2.7817,-2.7812,-2.7874,-2.7882,-2.7889,-2.7999,-2.7904,-2.7909,-2.7912,-2.8146,-2.815,-2.8153,0,0,0,0,0,0,-2.7694,-2.7708,-2.7823,-2.7768,-2.7781,-2.779,-2.7824,-2.7824,-2.7844,-2.7857,-2.7857,-2.7836,-2.7872,-2.7882,-2.7954,-2.8,-2.7911,-2.7916,-2.8142,-2.8147,-2.8152,-2.8219,0,0,0,0,0,0,-2.7689,-2.7707,-2.7743,-2.7769,-2.7784,-2.7887,-2.7827,-2.7827,-2.7853,-2.7847,-2.7875,-2.7876,-2.787,-2.7946,-2.7959,-2.8006,-2.792,-2.8138,-2.8144,-2.815,-2.8212,-2.8225,-2.8236,0,0,0,0,0,-2.7684,-2.7759,-2.7745,-2.776,-2.783,-2.789,-2.7899,-2.7892,-2.7857,-2.7893,-2.7901,-2.7875,-2.7993,-2.7954,-2.7968,-2.8017,-2.8135,-2.8143,-2.815,-2.8207,-2.8223,-2.8236,0,0,0,0,0,0,-2.7737,-2.7762,-2.7747,-2.7833,-2.786,-2.7882,-2.7927,-2.7909,-2.7945,-2.7938,-2.7927,-2.7933,-2.8008,-2.802,-2.7975,-2.8107,-2.8058,-2.8069,-2.8097,-2.8112,-2.8124,-2.8119,-2.7924,0,0,0,0,0,-2.7759,-2.7807,-2.7826,-2.79,-2.7914,-2.7919,-2.7944,-2.7937,-2.7964,-2.7974,-2.7988,-2.8014,-2.8057,-2.8085,-2.8125,-2.8214,-2.8218,-2.8254,-2.8266,-2.8276,-2.8285,-2.8332,-2.8348,-2.8178,-2.8178,-2.8177,0,0,-2.7805,-2.7824,-2.7855,-2.7911,-2.7931,-2.798,-2.7928,-2.7982,-2.8018,-2.7982,-2.8051,-2.8062,-2.809,-2.817,-2.8206,-2.8182,-2.8333,-2.8286,-2.8293,-2.8297,-2.8341,-2.8357,-2.8372,-2.8183,-2.8182,-2.8181,0,0,-2.7913,-2.7933,-2.7997,-2.8018,-2.8049,-2.8051,-2.8067,-2.8092,-2.8098,-2.8167,-2.8141,-2.8182,-2.8257,-2.8278,-2.8298,-2.8414,-2.8392,-2.8428,-2.849,-2.8536,-2.8549,-2.8561,-2.8602,-2.8617,-2.8437,-2.8437,-2.8437,0,-2.7965,-2.8039,-2.8031,-2.8087,-2.8112,-2.8083,-2.8147,-2.8167,-2.821,-2.8227,-2.82,-2.8292,-2.8309,-2.8394,-2.8422,-2.844,-2.8456,-2.8424,-2.8548,-2.856,-2.8571,-2.861,-2.8625,-2.8441,-2.844,-2.844,-2.844,0,-2.8102,-2.8153,-2.8201,-2.8243,-2.8274,-2.8333,-2.8333,-2.8365,-2.8354,-2.8359,-2.8429,-2.8448,-2.8492,-2.8511,-2.8501,-2.8594,-2.8578,-2.855,-2.8501,-2.8592,-2.8628,-2.8643,-2.8447,-2.8445,-2.8444,-2.8443,0,0,-2.8245,-2.8283,-2.83,-2.8319,-2.8352,-2.8391,-2.8448,-2.8492,-2.8519,-2.8549,-2.8596,-2.866,-2.8633,-2.8657,-2.8649,-2.8689,-2.8779,-2.8655,-2.8656,-2.8677,-2.8882,-2.8903,-2.892,-2.8764,-2.8767,-2.8769,-2.8879,0,-2.8354,-2.8456,-2.8451,-2.8546,-2.8593,-2.8566,-2.8616,-2.8641,-2.8647,-2.8686,-2.8692,-2.8737,-2.87,-2.8714,-2.8752,-2.876,-2.882,-2.8752,-2.8807,-2.8809,-2.8801,-2.8939,-2.8962,-2.9065,-2.8893,-2.8896,-2.8898,0,-2.8496,-2.8532,-2.8632,-2.8657,-2.8676,-2.8722,-2.8761,-2.88,-2.8826,-2.8828,-2.8854,-2.8839,-2.8896,-2.8846,-2.8924,-2.8878,-2.89,-2.8907,-2.8911,-2.8915,-2.8859,-2.8947,-2.9097,-2.9113,-2.892,-2.8918,-2.8916,0,-2.859,-2.8663,-2.8732,-2.8749,-2.878,-2.8813,-2.8827,-2.8851,-2.8877,-2.8911,-2.8928,-2.8967,-2.8989,-2.9019,-2.9015,-2.8979,-2.9094,-2.9044,-2.9096,-2.9096,-2.9121,-2.912,-2.9277,-2.9137,-2.9137,-2.9136,-2.9136,0,-2.8712,-2.8774,-2.8775,-2.8818,-2.8886,-2.8879,-2.8946,-2.8957,-2.8978,-2.9021,-2.9,-2.9041,-2.9033,-2.9073,-2.907,-2.9135,-2.9145,-2.9147,-2.9145,-2.9149,-2.9148,-2.9163,-2.9155,-2.914,-2.9139,-2.9139,-2.9138,0,-2.8829,-2.8832,-2.8905,-2.8929,-2.8936,-2.8986,-2.9005,-2.9045,-2.9049,-2.9104,-2.9116,-2.9123,-2.9169,-2.9168,-2.922,-2.9218,-2.9298,-2.9288,-2.9289,-2.9287,-2.9339,-2.9334,-2.9511,-2.9533,-2.9379,-2.938,-2.9382,0,-2.8906,-2.8954,-2.8983,-2.9011,-2.9027,-2.9072,-2.9099,-2.9093,-2.9122,-2.9156,-2.9192,-2.9236,-2.9272,-2.9347,-2.9355,-2.9395,-2.9386,-2.9445,-2.9392,-2.9393,-2.9386,-2.9383,-2.9388,-2.9455,-2.9457,-2.9458,-2.946,0,-2.9044,-2.9043,-2.9084,-2.9125,-2.9158,-2.919,-2.9219,-2.9243,-2.924,-2.9273,-2.9321,-2.9348,-2.9402,-2.9446,-2.9485,-2.9498,-2.9478,-2.9476,-2.9491,-2.9494,-2.9493,-2.9494,-2.9317,-2.9472,-2.9471,-2.947,-2.9469,-2.9469,-2.9143,-2.9184,-2.9211,-2.9256,-2.9278,-2.9305,-2.9344,-2.9353,-2.9393,-2.9438,-2.9431,-2.9484,-2.9509,-2.9559,-2.9575,-2.9616,-2.9595,-2.9616,-2.9621,-2.9626,-2.9631,-2.9487,-2.9623,-2.9622,-2.9622,-2.9622,-2.9622,0,-2.9279,-2.9295,-2.9337,-2.9379,-2.9415,-2.9394,-2.9426,-2.9456,-2.9504,-2.9529,-2.9565,-2.9619,-2.9662,-2.9674,-2.9715,-2.9745,-2.9737,-2.9756,-2.9753,-2.9756,-2.9648,-2.9632,-2.9761,-2.9761,-2.9761,-2.9761,-2.9761,-2.9761,-2.9354,-2.9422,-2.9424,-2.9502,-2.9517,-2.957,-2.9589,-2.9614,-2.9635,-2.9697,-2.9733,-2.9741,-2.976,-2.9802,-2.984,-2.9842,-2.9858,-2.9881,-2.9879,-2.9778,-2.9764,-2.9751,-2.9735,-2.9884,-2.9885,-2.9984,-2.9985,-2.9986]}]]